Location: Boiro
(42.6475°N, 8.8834°W)
Time: 11:58:09
(UTC+01:00)

Altair - Pass Details

Date: 07 December 2021
Orbit: 1501 x 1683 km, 47.2° (Epoch: 21 January)

Event Time Altitude Azimuth Distance (km) Brightness Sun altitude
Rises 23:18:11 0° 295° (WNW) 4,661 10.5 -56.6°
Reaches altitude 10° 23:21:32 10° 287° (WNW) 3,665 9.8 -57.2°
Enters shadow 23:23:30 17° 279° (W) 3,138 9.4 -57.5°
